, AK

(GMT )
Deadhorse

Weather History for PASC - May, 2014

Change the Weather History Date:

Monday, May 12, 2014

  Actual Average Record
Temperature  
Mean Temperature 34 °F -  
Max Temperature 37 °F 24 °F 43 °F (2016)
Min Temperature 32 °F 12 °F -9 °F (2011)
Degree Days  
Heating Degree Days 30    
Moisture  
Dew Point 32 °F    
Average Humidity 89    
Maximum Humidity 96    
Minimum Humidity 82    
Precipitation  
Precipitation 0.00 in - - ()
Sea Level Pressure  
Sea Level Pressure 30.20 in    
Wind  
Wind Speed 6 mph (SSW)    
Max Wind Speed 16 mph    
Max Gust Speed -    
Visibility 10 miles    
Events      
Averages and records for this station are not official NWS values.
T = Trace of Precipitation, MM = Missing Value Source: NWS Daily Summary

Daily Weather History Graph

Daily Weather History Graph

Search for Another Location

Airport or City:

Trip Planner

Search our weather history database for the weather conditions in past years. The results will help you decide how hot, cold, wet, or windy it might be!

Date:

Astronomy

May. 12, 2014 Rise Set
Actual Time 2:58 AM AKDT 12:52 AM AKDT
Civil Twilight Sun does not rise Sun does not rise
Nautical Twilight Sun does not rise Sun does not rise
Astronomical Twilight Sun does not rise Sun does not rise
Moon 8:57 PM AKDT (5/12) 4:05 AM AKDT (5/12)
Length of Visible Light 24h 00m
Length of Day
21h 54m
Waxing Gibbous, 95% of the Moon is Illuminated
May 12
Waxing Gibbous
May 14
Full
May 21
Last Quarter
May 28
New
Jun 5
First Quarter

Hourly Weather History & Observations

Time (AKDT) Temp. Windchill Dew Point Humidity Pressure Visibility Wind Dir Wind Speed Gust Speed Precip Events Conditions
12:53 AM 33.1 °F 27.7 °F 32.0 °F 96% 30.28 in 10.0 mi SSW 5.8 mph - N/A   Overcast
1:53 AM 34.0 °F - 32.0 °F 92% 30.27 in 10.0 mi Calm Calm - N/A   Overcast
2:53 AM 33.1 °F 30.0 °F 30.9 °F 92% 30.25 in 10.0 mi East 3.5 mph - N/A   Overcast
3:53 AM 34.0 °F 28.0 °F 30.9 °F 89% 30.24 in 10.0 mi SE 6.9 mph - N/A   Overcast
4:53 AM 37.0 °F 31.6 °F 32.0 °F 82% 30.22 in 10.0 mi South 6.9 mph - 0.00 in   Mostly Cloudy
6:53 AM 36.0 °F 30.3 °F 30.9 °F 82% 30.22 in 10.0 mi WSW 6.9 mph - N/A   Overcast
7:53 AM 34.0 °F 28.8 °F 30.9 °F 89% 30.21 in 10.0 mi SSW 5.8 mph - N/A   Mostly Cloudy
8:53 AM 36.0 °F 26.3 °F 30.9 °F 82% 30.22 in 10.0 mi SW 16.1 mph - N/A   Mostly Cloudy
9:53 AM 35.1 °F 25.5 °F 30.9 °F 85% 30.22 in 10.0 mi SW 15.0 mph - N/A   Mostly Cloudy
10:53 AM 35.1 °F 26.4 °F 32.0 °F 89% 30.23 in 10.0 mi WSW 12.7 mph - N/A   Overcast
11:53 AM 35.1 °F 26.4 °F 32.0 °F 89% 30.24 in 10.0 mi WSW 12.7 mph - N/A   Mostly Cloudy
12:53 PM 35.1 °F 27.4 °F 32.0 °F 89% 30.24 in 10.0 mi West 10.4 mph - N/A   Mostly Cloudy
1:53 PM 35.1 °F 29.3 °F 32.0 °F 89% 30.24 in 10.0 mi West 6.9 mph - N/A   Partly Cloudy
2:53 PM 35.1 °F 29.3 °F 32.0 °F 89% 30.24 in 10.0 mi West 6.9 mph - N/A   Scattered Clouds
3:53 PM 35.1 °F 30.1 °F 32.0 °F 89% 30.23 in 10.0 mi WSW 5.8 mph - N/A   Partly Cloudy
4:53 PM 35.1 °F 30.1 °F 32.0 °F 89% 30.22 in 10.0 mi WSW 5.8 mph - N/A   Overcast
5:53 PM 37.0 °F 34.5 °F 33.1 °F 86% 30.19 in 10.0 mi NW 3.5 mph - N/A   Overcast
6:53 PM 35.1 °F - 32.0 °F 89% 30.18 in 10.0 mi Calm Calm - N/A   Mostly Cloudy
7:53 PM 34.0 °F 29.8 °F 32.0 °F 92% 30.15 in 10.0 mi SE 4.6 mph - N/A   Overcast
8:53 PM 33.1 °F 28.7 °F 30.9 °F 92% 30.12 in 10.0 mi ESE 4.6 mph - N/A   Scattered Clouds
9:53 PM 32.0 °F 26.4 °F 30.9 °F 96% 30.10 in 10.0 mi ESE 5.8 mph - N/A   Scattered Clouds
10:53 PM 32.0 °F 25.6 °F 30.9 °F 96% 30.07 in 10.0 mi East 6.9 mph - N/A   Mostly Cloudy
11:53 PM 33.1 °F 26.1 °F 30.9 °F 92% 30.04 in 10.0 mi East 8.1 mph - N/A   Overcast